| time (UTC) | temp C | wind direction | speed KPH | gust KPH | rain 1hr cm | rain 24hr cm | rain mn cm | humidity % | barometer mb |
| 20260905100050 | 16 | 0 | 0.0 | 1.6 | 0.00 | 0.08 | 0.00 | 94 | 1008.9 |
| 20260905094559 | 16 | 0 | 0.0 | 4.8 | 0.00 | 0.08 | 0.00 | 94 | 1008.6 |
| 20260905093123 | 16 | 0 | 0.0 | 0.0 | 0.00 | 0.08 | 0.00 | 93 | 1008.6 |
| 20260905091604 | 16 | 0 | 0.0 | 1.6 | 0.00 | 0.08 | 0.00 | 91 | 1008.4 |
| 20260905090051 | 16 | 0 | 0.0 | 1.6 | 0.00 | 0.08 | 0.00 | 87 | 1008.4 |
| 20260905084548 | 16 | 0 | 0.0 | 0.0 | 0.00 | 0.08 | 0.00 | 85 | 1008.5 |
| 20260905083108 | 16 | 0 | 0.0 | 1.6 | 0.00 | 0.08 | 0.00 | 83 | 1008.3 |
| 20260905081558 | 16 | 0 | 0.0 | 4.8 | 0.00 | 0.08 | 0.00 | 82 | 1008.4 |
| 20260905074549 | 17 | 311 | 1.6 | 8.0 | 0.00 | 0.08 | 0.00 | 81 | 1008.4 |
| 20260905073100 | 16 | 311 | 1.6 | 8.0 | 0.00 | 0.08 | 0.00 | 81 | 1008.4 |
| 20260905071556 | 16 | 0 | 1.6 | 6.4 | 0.00 | 0.08 | 0.00 | 81 | 1008.5 |
| 20260905070111 | 17 | 345 | 1.6 | 6.4 | 0.00 | 0.08 | 0.00 | 80 | 1008.5 |
| 20260905064549 | 17 | 0 | 0.0 | 4.8 | 0.00 | 0.08 | 0.00 | 79 | 1008.5 |
| 20260905063059 | 17 | 0 | 0.0 | 8.0 | 0.00 | 0.08 | 0.00 | 78 | 1008.5 |
| 20260905061607 | 17 | 0 | 1.6 | 6.4 | 0.00 | 0.08 | 0.00 | 77 | 1008.6 |
| 20260905060053 | 17 | 269 | 4.8 | 9.7 | 0.00 | 0.08 | 0.00 | 76 | 1008.6 |
| 20260905054555 | 18 | 315 | 3.2 | 8.0 | 0.00 | 0.08 | 0.00 | 75 | 1008.7 |
| 20260905053059 | 18 | 296 | 4.8 | 12.9 | 0.00 | 0.08 | 0.00 | 74 | 1008.4 |
| 20260905051558 | 17 | 307 | 3.2 | 11.3 | 0.00 | 0.08 | 0.00 | 76 | 1008.6 |
| 20260905050055 | 17 | 325 | 1.6 | 8.0 | 0.00 | 0.08 | 0.00 | 76 | 1008.7 |
| 20260905044549 | 17 | 292 | 3.2 | 6.4 | 0.00 | 0.08 | 0.00 | 76 | 1008.8 |
| 20260905043058 | 17 | 0 | 1.6 | 9.7 | 0.00 | 0.08 | 0.00 | 74 | 1008.8 |
| 20260905041600 | 17 | 327 | 4.8 | 11.3 | 0.00 | 0.08 | 0.00 | 75 | 1008.7 |
| 20260905040057 | 18 | 314 | 3.2 | 9.7 | 0.00 | 0.08 | 0.00 | 73 | 1008.9 |
| 20260905034551 | 18 | 309 | 4.8 | 12.9 | 0.00 | 0.08 | 0.08 | 71 | 1009.0 |
| 20260905033105 | 18 | 290 | 4.8 | 11.3 | 0.00 | 0.08 | 0.08 | 73 | 1009.0 |
| 20260905031605 | 18 | 301 | 3.2 | 8.0 | 0.00 | 0.08 | 0.08 | 75 | 1008.9 |
| 20260905030056 | 18 | 300 | 1.6 | 6.4 | 0.00 | 0.08 | 0.08 | 73 | 1009.2 |
| 20260905024604 | 18 | 306 | 1.6 | 8.0 | 0.00 | 0.08 | 0.08 | 70 | 1009.1 |
| 20260905023058 | 19 | 360 | 3.2 | 11.3 | 0.00 | 0.08 | 0.08 | 68 | 1009.2 |
| 20260905021549 | 18 | 327 | 4.8 | 11.3 | 0.00 | 0.08 | 0.08 | 72 | 1009.2 |
| 20260905020059 | 17 | 0 | 0.0 | 1.6 | 0.00 | 0.08 | 0.08 | 79 | 1009.4 |
| 20260905014557 | 18 | 0 | 0.0 | 3.2 | 0.00 | 0.08 | 0.08 | 79 | 1009.4 |
| 20260905013053 | 18 | 184 | 0.0 | 3.2 | 0.00 | 0.08 | 0.08 | 73 | 1009.3 |
| 20260905011549 | 19 | 0 | 0.0 | 8.0 | 0.00 | 0.08 | 0.08 | 67 | 1009.5 |
| 20260905010058 | 18 | 269 | 3.2 | 9.7 | 0.00 | 0.08 | 0.08 | 72 | 1009.3 |
| 20260905004616 | 19 | 263 | 0.0 | 4.8 | 0.00 | 0.08 | 0.08 | 69 | 1009.4 |
| 20260905003055 | 20 | 0 | 0.0 | 3.2 | 0.00 | 0.08 | 0.08 | 66 | 1009.4 |
| 20260905001558 | 20 | 0 | 0.0 | 4.8 | 0.00 | 0.08 | 0.08 | 65 | 1009.5 |
| 20260905000055 | 20 | 306 | 1.6 | 4.8 | 0.00 | 0.08 | 0.08 | 63 | 1009.3 |
| 20260904234550 | 20 | 322 | 3.2 | 9.7 | 0.00 | 0.08 | 0.08 | 62 | 1009.2 |
| 20260904233047 | 21 | 316 | 4.8 | 11.3 | 0.00 | 0.08 | 0.08 | 62 | 1009.1 |
| 20260904231548 | 21 | 323 | 1.6 | 6.4 | 0.00 | 0.08 | 0.08 | 63 | 1009.2 |
| 20260904230128 | 21 | 316 | 1.6 | 6.4 | 0.00 | 0.08 | 0.08 | 64 | 1009.1 |
| 20260904224551 | 21 | 311 | 0.0 | 3.2 | 0.00 | 0.08 | 0.08 | 62 | 1009.0 |
| 20260904223052 | 22 | 0 | 0.0 | 4.8 | 0.00 | 0.08 | 0.08 | 61 | 1008.8 |
| 20260904221601 | 22 | 309 | 1.6 | 11.3 | 0.00 | 0.08 | 0.08 | 58 | 1008.9 |
| 20260904220101 | 22 | 321 | 3.2 | 12.9 | 0.00 | 0.08 | 0.08 | 58 | 1009.0 |
| 20260904214550 | 23 | 335 | 8.0 | 20.9 | 0.00 | 0.08 | 0.08 | 55 | 1008.8 |
| 20260904213051 | 23 | 306 | 8.0 | 16.1 | 0.00 | 0.08 | 0.08 | 56 | 1008.7 |
| 20260904211556 | 23 | 329 | 6.4 | 12.9 | 0.00 | 0.08 | 0.08 | 58 | 1008.7 |
| 20260904210048 | 23 | 298 | 4.8 | 17.7 | 0.00 | 0.08 | 0.08 | 59 | 1008.7 |
| 20260904204559 | 23 | 342 | 9.7 | 17.7 | 0.00 | 0.08 | 0.08 | 57 | 1008.6 |
| 20260904203056 | 23 | 310 | 8.0 | 20.9 | 0.00 | 0.08 | 0.08 | 58 | 1008.6 |
| 20260904201552 | 23 | 341 | 8.0 | 17.7 | 0.00 | 0.08 | 0.08 | 60 | 1008.6 |
| 20260904200048 | 23 | 314 | 4.8 | 14.5 | 0.00 | 0.08 | 0.08 | 60 | 1008.5 |
| 20260904194607 | 24 | 304 | 1.6 | 12.9 | 0.00 | 0.08 | 0.08 | 58 | 1008.4 |
| 20260904193050 | 25 | 321 | 4.8 | 16.1 | 0.00 | 0.08 | 0.08 | 58 | 1008.4 |
| 20260904191546 | 25 | 319 | 4.8 | 14.5 | 0.00 | 0.08 | 0.08 | 58 | 1008.3 |
| 20260904190059 | 26 | 306 | 9.7 | 17.7 | 0.00 | 0.08 | 0.08 | 55 | 1008.5 |
| 20260904184548 | 25 | 291 | 4.8 | 12.9 | 0.00 | 0.08 | 0.08 | 58 | 1008.8 |
| 20260904183114 | 25 | 0 | 4.8 | 8.0 | 0.00 | 0.08 | 0.08 | 66 | 1008.7 |
| 20260904181559 | 23 | 19 | 1.6 | 6.4 | 0.03 | 0.08 | 0.08 | 75 | 1008.8 |
| 20260904180056 | 22 | 346 | 1.6 | 8.0 | 0.08 | 0.08 | 0.08 | 77 | 1009.0 |
| 20260904174548 | 22 | 341 | 3.2 | 8.0 | 0.08 | 0.08 | 0.08 | 78 | 1009.0 |
| 20260904173059 | 22 | 0 | 0.0 | 12.9 | 0.08 | 0.08 | 0.08 | 79 | 1008.9 |
| 20260904171556 | 23 | 284 | 8.0 | 14.5 | 0.05 | 0.05 | 0.05 | 71 | 1009.2 |
| 20260904170053 | 24 | 350 | 6.4 | 16.1 | 0.00 | 0.00 | 0.00 | 57 | 1009.0 |
| 20260904164603 | 25 | 355 | 3.2 | 19.3 | 0.00 | 0.00 | 0.00 | 53 | 1009.0 |
| 20260904163106 | 25 | 307 | 4.8 | 11.3 | 0.00 | 0.00 | 0.00 | 56 | 1009.0 |
| 20260904161555 | 25 | 331 | 3.2 | 14.5 | 0.00 | 0.00 | 0.00 | 61 | 1009.3 |
| 20260904160105 | 25 | 315 | 1.6 | 9.7 | 0.00 | 0.00 | 0.00 | 59 | 1009.4 |
| 20260904154601 | 26 | 298 | 4.8 | 11.3 | 0.00 | 0.03 | 0.00 | 59 | 1009.4 |
| 20260904153107 | 26 | 211 | 1.6 | 11.3 | 0.00 | 0.03 | 0.00 | 63 | 1009.4 |
| 20260904151557 | 25 | 284 | 1.6 | 12.9 | 0.00 | 0.03 | 0.00 | 68 | 1009.5 |
| 20260904150103 | 25 | 297 | 0.0 | 12.9 | 0.00 | 0.03 | 0.00 | 69 | 1009.6 |
| 20260904144550 | 24 | 348 | 0.0 | 11.3 | 0.00 | 0.03 | 0.00 | 76 | 1009.8 |
| 20260904143058 | 24 | 279 | 3.2 | 11.3 | 0.00 | 0.03 | 0.00 | 86 | 1009.7 |
| 20260904141559 | 25 | 314 | 1.6 | 9.7 | 0.00 | 0.03 | 0.00 | 100 | 1009.9 |
| 20260904140106 | 25 | 302 | 3.2 | 11.3 | 0.00 | 0.03 | 0.00 | 100 | 1010.1 |
| 20260904134550 | 25 | 0 | 0.0 | 8.0 | 0.00 | 0.03 | 0.00 | 100 | 1010.0 |
| 20260904133104 | 24 | 296 | 3.2 | 9.7 | 0.00 | 0.03 | 0.00 | 100 | 1010.1 |
| 20260904131548 | 24 | 346 | 3.2 | 6.4 | 0.00 | 0.03 | 0.00 | 100 | 1010.0 |
| 20260904130104 | 23 | 304 | 3.2 | 8.0 | 0.00 | 0.03 | 0.00 | 100 | 1010.0 |
| 20260904124552 | 23 | 360 | 1.6 | 6.4 | 0.00 | 0.08 | 0.00 | 100 | 1010.1 |
| 20260904123047 | 22 | 308 | 4.8 | 8.0 | 0.00 | 0.08 | 0.00 | 100 | 1010.2 |
| 20260904121600 | 23 | 301 | 3.2 | 11.3 | 0.00 | 0.08 | 0.00 | 100 | 1010.3 |
| 20260904120107 | 22 | 310 | 4.8 | 8.0 | 0.00 | 0.08 | 0.00 | 100 | 1010.2 |
| 20260904114549 | 22 | 320 | 1.6 | 8.0 | 0.00 | 0.20 | 0.00 | 100 | 1010.0 |
| 20260904113048 | 22 | 360 | 3.2 | 6.4 | 0.00 | 0.20 | 0.00 | 100 | 1009.9 |
| 20260904111549 | 22 | 317 | 1.6 | 4.8 | 0.00 | 0.20 | 0.00 | 100 | 1009.9 |
| 20260904110058 | 22 | 322 | 1.6 | 6.4 | 0.00 | 0.20 | 0.00 | 100 | 1009.9 |
| 20260904104606 | 21 | 320 | 1.6 | 3.2 | 0.00 | 0.23 | 0.00 | 100 | 1009.8 |
| 20260904103047 | 21 | 269 | 0.0 | 3.2 | 0.00 | 0.23 | 0.00 | 100 | 1009.6 |
| 20260904101547 | 21 | 0 | 0.0 | 3.2 | 0.00 | 0.23 | 0.00 | 100 | 1009.6 |